Probability
0 0 0 0 6 3 0 0 0 0 0 0 0 0 0 0 0 65 68 0 13 58 84 90 100 100 100 100 100 100 100 100 100 100 100 100 100 100 100 94 55 29 65 97 100 100 100 100 100
0 0 0 0 3 0 0 0 0 3 0 3 0 0 0 0 0 19 29 0 23 39 68 29 100 100 100 100 100 100 100 100 100 100 100 100 100 100 100 100 97 68 29 29 45 55 81 90 84
0 0 0 0 0 0 0 0 0 6 10 13 0 0 0 0 0 0 13 6 32 68 81 100 100 100 100 100 100 100 100 100 100 100 100 100 100 100 100 100 100 100 90 71 48 19 19 23 42
0 0 0 0 0 0 0 0 0 6 10 19 6 0 0 0 0 0 3 6 55 90 58 100 100 100 100 100 100 100 100 100 100 100 100 100 100 100 100 100 100 100 100 97 100 90 71 45 29
0 0 0 0 0 0 0 0 0 3 3 48 6 0 0 58 6 3 6 19 77 68 61 100 100 100 100 100 100 100 100 100 100 100 100 100 100 100 100 100 100 100 100 100 100 100 100 100 100
0 0 0 0 0 0 0 3 0 6 32 65 6 0 35 94 48 6 16 32 42 48 61 100 100 100 100 100 100 100 100 100 100 100 100 100 100 100 100 100 100 100 100 100 100 100 100 100 100
0 0 0 0 0 0 0 10 3 0 19 74 29 3 39 97 94 65 68 65 58 42 84 100 100 100 100 100 100 100 100 100 100 100 100 100 100 100 100 100 100 100 100 100 100 100 100 100 100
0 0 0 0 0 0 0 10 0 6 42 94 81 26 45 100 100 94 94 97 100 90 87 100 100 100 100 100 100 100 100 100 100 100 100 100 100 100 100 100 100 100 100 100 100 100 100 100 100
0 0 0 0 0 0 0 0 3 13 55 94 100 100 100 100 100 100 100 100 100 100 100 100 94 100 100 90 100 100 100 100 100 100 100 100 100 100 100 100 100 100 100 100 100 100 100 100 100
0 0 0 0 0 0 0 0 0 0 3 35 100 100 100 100 100 100 100 100 100 100 100 100 100 100 100 94 100 100 100 100 100 100 100 100 100 100 100 100 100 100 100 100 100 100 100 100 100
0 0 0 0 0 0 0 0 0 0 0 0 71 100 100 100 100 100 100 100 100 100 100 100 100 100 100 100 100 100 100 100 100 100 100 100 100 100 100 100 100 100 100 100 100 100 100 100 100
0 0 0 0 0 0 0 0 0 0 0 16 42 100 100 100 100 100 97 100 100 100 100 100 100 100 100 100 100 100 100 100 100 100 100 100 100 100 100 100 100 100 100 100 100 100 48 77 94
0 0 0 0 0 0 0 0 0 0 0 26 77 100 100 100 100 100 100 100 100 100 100 100 100 100 100 100 100 100 100 100 100 100 100 100 100 100 100 100 100 100 100 100 97 45 23 68 77
0 0 0 0 0 0 0 0 0 0 0 39 90 100 100 100 100 100 100 100 100 100 100 100 100 100 100 100 100 100 100 100 100 100 100 100 100 100 100 100 100 100 100 97 87 52 52 32 32
0 0 0 0 0 0 0 0 0 0 0 45 90 100 100 100 100 100 100 100 100 100 100 100 100 100 100 100 100 100 100 100 100 100 100 100 100 100 100 100 100 97 90 90 81 55 35 23 10
0 0 0 0 0 0 0 0 0 3 3 48 97 100 100 100 100 100 100 100 100 100 100 100 100 100 100 100 100 100 100 100 100 100 100 100 100 100 100 100 100 94 100 94 84 58 39 42 45
0 0 0 0 0 0 0 0 13 23 26 84 100 100 100 100 100 100 100 100 100 100 100 100 100 100 100 100 100 100 100 100 100 94 97 100 100 97 90 87 84 81 77 87 81 87 94 87 87
0 0 0 0 0 0 0 0 55 97 90 100 100 100 100 100 100 100 100 100 100 100 100 100 100 100 97 90 94 94 84 74 74 81 94 90 65 39 23 6 16 6 13 32 52 71 94 94 94
0 0 0 0 0 0 0 10 68 100 100 100 100 100 100 100 100 100 100 97 94 97 100 100 97 97 97 84 48 29 16 19 16 19 35 32 19 19 19 0 0 0 0 3 3 6 6 19 52
0 0 0 0 0 0 0 0 45 97 97 100 100 100 100 100 97 84 87 77 84 90 97 100 100 84 94 74 81 68 23 0 0 3 26 29 23 3 0 0 0 0 0 0 0 6 0 0 0
0 0 0 0 0 0 0 0 10 65 97 100 100 100 100 94 71 52 39 48 71 84 84 84 97 94 90 87 48 68 94 77 3 13 23 16 16 6 3 3 3 0 0 0 0 6 10 0 0
0 0 0 0 0 0 0 0 0 0 32 84 97 100 97 71 26 16 10 16 45 65 90 94 97 100 97 100 61 19 29 0 0 48 13 23 10 0 0 0 0 3 0 3 0 0 13 23 10
0 0 0 0 0 0 0 0 0 0 0 10 68 97 94 71 26 16 10 26 45 58 90 97 100 100 97 97 97 97 68 6 3 48 39 32 0 0 0 0 0 6 0 0 6 26 19 19 26
0 0 0 0 0 0 0 0 0 0 3 16 52 94 94 77 52 29 42 58 81 87 94 97 100 100 100 94 87 94 90 97 90 74 26 10 0 0 0 0 0 0 0 0 6 10 13 29 61
0 0 0 0 0 0 0 0 0 3 6 35 68 61 65 52 32 32 35 45 45 58 68 77 74 97 90 90 90 90 100 100 100 65 16 6 0 0 0 0 0 0 0 3 6 13 19 19 55
0 0 0 0 0 0 0 0 0 3 3 16 19 13 10 3 0 0 0 0 6 13 32 39 61 77 68 68 87 94 97 100 71 65 16 0 0 0 0 0 0 0 0 0 3 0 10 23 52
0 0 0 0 0 0 0 0 0 6 3 0 0 0 0 0 0 0 0 0 0 0 3 10 39 65 71 52 77 97 97 100 94 74 48 3 0 0 0 0 0 0 3 6 6 3 6 23 42
0 0 0 0 0 0 0 0 0 0 0 0 0 0 0 0 0 0 0 0 0 0 0 0 0 10 23 42 74 74 97 100 100 94 55 26 13 3 0 0 0 0 0 0 6 6 6 19 42
0 0 0 0 0 0 0 0 0 0 0 0 0 0 0 0 0 0 0 0 0 0 0 0 0 0 0 0 6 26 61 77 97 100 94 74 52 35 13 0 0 0 0 0 6 3 0 6 16
0 0 0 0 0 0 0 0 0 0 0 0 0 0 0 0 0 0 0 0 0 0 0 0 0 0 0 0 0 0 6 10 39 65 94 94 84 55 16 0 0 0 0 0 0 0 0 0 0
Height
5931 5931 5932 5933 5935 5937 5936 5936 5934 5933 5932 5931 5930 5930 5930 5930 5931 5933 5931 5929 5929 5928 5928 5927 5927 5928 5928 5927 5927 5926 5925 5924 5922 5921 5919 5918 5917 5916 5915 5914 5912 5911 5910 5909 5909 5907 5906 5904 5902
5931 5932 5933 5934 5936 5937 5936 5935 5934 5933 5933 5932 5931 5930 5930 5931 5931 5931 5930 5929 5929 5929 5929 5928 5928 5928 5928 5927 5926 5925 5924 5923 5922 5920 5919 5918 5917 5916 5915 5914 5912 5911 5910 5909 5908 5907 5905 5904 5902
5931 5932 5934 5935 5936 5937 5936 5935 5934 5933 5932 5931 5931 5930 5930 5930 5930 5930 5930 5929 5929 5929 5928 5928 5928 5928 5928 5927 5926 5924 5923 5921 5920 5919 5919 5918 5916 5915 5914 5913 5912 5911 5910 5908 5907 5906 5904 5903 5901
5931 5933 5934 5936 5937 5935 5934 5934 5933 5932 5932 5931 5930 5930 5929 5929 5929 5929 5928 5928 5928 5928 5927 5927 5927 5927 5927 5926 5925 5923 5922 5920 5919 5918 5917 5916 5915 5914 5913 5912 5911 5910 5908 5907 5906 5904 5902 5901 5899
5930 5932 5934 5935 5935 5935 5934 5934 5933 5932 5932 5930 5929 5929 5928 5927 5927 5927 5927 5927 5927 5926 5926 5925 5925 5925 5925 5924 5923 5922 5920 5918 5917 5916 5915 5914 5913 5912 5911 5910 5908 5907 5906 5904 5903 5902 5900 5899 5898
5929 5932 5934 5936 5935 5935 5935 5934 5933 5933 5931 5930 5929 5929 5927 5926 5926 5925 5925 5925 5925 5925 5924 5924 5923 5923 5923 5922 5920 5919 5918 5916 5915 5914 5912 5912 5911 5910 5909 5907 5906 5904 5903 5901 5900 5900 5898 5897 5896
5927 5929 5932 5933 5934 5935 5935 5934 5933 5932 5931 5930 5929 5928 5926 5925 5925 5925 5924 5925 5925 5924 5924 5923 5922 5921 5920 5919 5918 5917 5915 5914 5912 5912 5911 5909 5908 5907 5906 5904 5903 5901 5899 5898 5897 5897 5896 5895 5894
5924 5927 5929 5931 5932 5932 5933 5933 5932 5931 5931 5929 5928 5927 5926 5925 5924 5924 5923 5923 5923 5923 5922 5921 5920 5919 5918 5917 5916 5915 5913 5911 5910 5909 5908 5907 5905 5904 5902 5900 5899 5897 5895 5895 5894 5893 5893 5892 5891
5922 5926 5927 5927 5928 5929 5931 5932 5931 5930 5930 5928 5927 5925 5924 5923 5923 5922 5922 5921 5921 5920 5919 5918 5917 5916 5914 5913 5912 5911 5909 5908 5907 5905 5904 5902 5901 5900 5898 5896 5894 5893 5891 5891 5890 5889 5889 5888 5887
5919 5922 5923 5922 5925 5926 5928 5929 5929 5929 5929 5927 5925 5924 5922 5921 5920 5920 5919 5918 5918 5917 5916 5914 5913 5911 5910 5908 5907 5905 5904 5903 5901 5900 5899 5897 5896 5895 5893 5891 5889 5888 5886 5885 5884 5883 5882 5882 5882
5914 5916 5916 5918 5920 5922 5924 5926 5927 5927 5926 5925 5923 5922 5920 5918 5917 5917 5916 5915 5915 5913 5912 5910 5908 5906 5904 5902 5901 5899 5897 5896 5895 5894 5892 5891 5890 5888 5886 5884 5883 5881 5879 5878 5877 5876 5875 5875 5875
5911 5911 5912 5913 5915 5917 5919 5922 5924 5924 5923 5922 5920 5919 5917 5915 5914 5913 5912 5911 5911 5909 5907 5905 5902 5899 5897 5895 5894 5892 5890 5889 5888 5887 5885 5884 5883 5881 5879 5877 5875 5874 5872 5870 5869 5868 5867 5867 5867
5906 5907 5908 5909 5911 5913 5914 5917 5919 5920 5918 5918 5917 5915 5914 5912 5910 5909 5907 5906 5905 5903 5901 5898 5896 5893 5890 5888 5886 5884 5883 5882 5880 5879 5877 5876 5875 5873 5871 5870 5868 5866 5864 5861 5859 5859 5857 5858 5859
5901 5903 5904 5905 5906 5908 5910 5912 5914 5915 5913 5914 5913 5912 5910 5908 5907 5904 5902 5900 5899 5896 5894 5891 5889 5886 5884 5881 5879 5877 5876 5874 5873 5871 5869 5868 5866 5864 5862 5861 5859 5857 5855 5852 5851 5849 5847 5848 5850
5895 5899 5901 5901 5901 5903 5906 5908 5908 5908 5908 5908 5908 5908 5906 5904 5902 5899 5897 5894 5892 5889 5887 5884 5881 5878 5876 5874 5872 5870 5868 5867 5865 5864 5862 5860 5858 5856 5855 5853 5851 5849 5847 5845 5843 5841 5840 5841 5842
5890 5895 5897 5896 5897 5898 5902 5903 5901 5902 5902 5902 5902 5901 5900 5898 5896 5894 5891 5888 5885 5882 5879 5876 5873 5870 5867 5865 5864 5862 5860 5859 5858 5856 5855 5853 5851 5849 5847 5845 5843 5841 5839 5838 5836 5834 5833 5833 5834
5885 5889 5890 5889 5891 5893 5896 5897 5894 5896 5895 5895 5895 5894 5893 5892 5890 5888 5885 5883 5880 5877 5873 5869 5865 5862 5859 5857 5856 5855 5853 5852 5851 5849 5848 5846 5844 5842 5841 5839 5837 5835 5833 5831 5829 5828 5826 5826 5825
5880 5883 5883 5884 5884 5888 5889 5889 5889 5889 5889 5888 5888 5887 5886 5885 5884 5882 5880 5877 5874 5871 5866 5862 5858 5855 5853 5851 5850 5849 5847 5846 5844 5843 5842 5841 5839 5837 5835 5833 5831 5829 5826 5824 5822 5820 5818 5817 5817
5874 5877 5879 5877 5878 5881 5881 5881 5881 5881 5881 5880 5880 5879 5879 5879 5878 5876 5874 5871 5868 5864 5859 5855 5852 5849 5847 5846 5844 5843 5842 5840 5839 5837 5836 5835 5833 5831 5830 5827 5825 5822 5820 5817 5814 5812 5810 5809 5808
5871 5874 5875 5873 5872 5874 5874 5874 5874 5874 5874 5874 5874 5874 5874 5873 5872 5870 5867 5864 5860 5856 5852 5849 5846 5844 5842 5840 5838 5837 5836 5835 5833 5832 5830 5829 5827 5826 5823 5821 5819 5816 5812 5810 5807 5804 5802 5801 5800
5870 5870 5870 5869 5869 5870 5869 5870 5868 5867 5868 5869 5869 5868 5867 5866 5864 5861 5858 5855 5852 5848 5845 5843 5841 5838 5836 5834 5832 5830 5829 5828 5828 5827 5825 5824 5822 5820 5818 5815 5813 5809 5806 5802 5799 5795 5793 5793 5792
5868 5866 5865 5864 5865 5866 5865 5865 5867 5862 5861 5861 5861 5860 5859 5857 5854 5851 5849 5846 5843 5841 5839 5837 5834 5832 5830 5827 5825 5824 5823 5823 5822 5821 5819 5818 5816 5814 5811 5809 5807 5804 5800 5796 5791 5787 5784 5782 5782
5863 5862 5861 5860 5860 5860 5859 5859 5861 5856 5853 5853 5852 5851 5850 5847 5844 5842 5839 5837 5835 5833 5831 5829 5827 5824 5823 5822 5820 5819 5818 5817 5816 5814 5813 5811 5809 5807 5804 5802 5799 5796 5793 5788 5783 5778 5775 5772 5771
5860 5860 5859 5858 5858 5858 5855 5856 5855 5850 5847 5846 5844 5842 5840 5837 5835 5832 5831 5830 5829 5826 5824 5822 5819 5818 5817 5816 5814 5813 5811 5810 5809 5807 5805 5804 5802 5800 5797 5795 5792 5788 5785 5780 5775 5770 5767 5764 5762
5859 5859 5859 5859 5859 5857 5852 5851 5849 5845 5843 5841 5839 5837 5834 5832 5829 5825 5824 5824 5822 5819 5817 5815 5813 5811 5810 5809 5808 5807 5805 5803 5801 5800 5798 5796 5795 5793 5790 5787 5784 5780 5776 5772 5768 5763 5759 5756 5754
5857 5856 5857 5857 5856 5854 5850 5847 5842 5841 5838 5836 5834 5831 5829 5827 5825 5822 5819 5817 5815 5813 5811 5809 5807 5805 5802 5801 5800 5799 5797 5794 5793 5791 5790 5788 5787 5784 5782 5779 5775 5772 5769 5766 5761 5757 5752 5749 5746
5855 5854 5853 5851 5850 5848 5848 5843 5837 5836 5833 5830 5828 5826 5824 5821 5819 5816 5813 5810 5808 5805 5803 5800 5798 5796 5794 5791 5790 5789 5787 5785 5783 5782 5780 5779 5777 5774 5772 5769 5767 5764 5762 5759 5755 5750 5746 5742 5739
5854 5851 5850 5848 5846 5846 5844 5841 5838 5832 5829 5826 5822 5820 5817 5815 5811 5808 5805 5801 5798 5795 5793 5790 5788 5785 5783 5780 5779 5778 5776 5775 5774 5772 5771 5769 5767 5765 5762 5760 5758 5756 5754 5751 5747 5743 5739 5736 5732
5851 5848 5846 5844 5842 5839 5837 5837 5831 5827 5824 5821 5817 5812 5808 5804 5801 5797 5793 5790 5787 5784 5780 5778 5775 5772 5769 5767 5765 5763 5763 5763 5762 5761 5759 5757 5755 5754 5752 5750 5748 5747 5745 5743 5740 5737 5733 5729 5725
5847 5843 5841 5839 5835 5832 5829 5828 5824 5819 5815 5811 5807 5803 5798 5794 5790 5785 5781 5777 5773 5770 5766 5763 5760 5757 5754 5751 5749 5747 5746 5746 5747 5746 5745 5744 5742 5741 5741 5740 5739 5737 5736 5734 5732 5729 5727 5723 5719
Wind_Speed
5 6 6 8 8 9 8 7 6 8 10 9 9 9 9 7 6 4 3 2 1 2 2 2 3 1 1 2 3 3 5 6 7 6 5 4 5 6 6 5 4 4 5 5 6 7 6 6 6
5 6 6 7 9 7 6 6 5 4 4 5 5 6 6 6 6 5 4 3 2 1 1 1 1 1 2 3 4 6 6 7 7 7 6 6 5 5 6 5 4 3 4 5 7 6 5 4 3
4 4 5 5 5 3 4 5 6 6 5 4 3 3 3 4 4 4 4 3 3 3 3 2 1 3 4 6 6 7 8 6 6 6 7 7 7 6 6 7 6 5 5 6 8 9 8 5 3
5 4 4 3 2 3 4 5 6 5 5 4 3 2 0 1 1 2 1 1 2 3 3 3 3 4 5 6 7 8 8 7 6 6 7 8 8 8 8 8 8 7 7 8 10 12 12 9 7
8 7 6 7 8 6 5 5 5 4 4 4 4 4 1 0 1 1 2 2 2 3 3 3 3 4 5 6 7 8 8 8 8 8 8 8 8 9 9 10 11 12 12 13 13 13 12 12 10
12 10 7 7 8 6 4 4 6 7 7 6 4 4 2 1 1 1 2 2 3 3 3 3 4 5 6 7 7 8 9 10 10 9 8 8 10 12 13 14 15 16 17 16 15 13 13 12 11
16 14 11 10 9 8 7 6 9 10 11 9 6 4 2 1 1 1 2 3 4 5 6 7 7 8 10 10 11 11 11 11 11 11 11 12 14 16 17 17 17 18 19 19 18 17 16 14 13
20 18 15 14 14 14 10 8 8 9 10 9 7 5 5 5 5 5 6 7 8 10 11 12 13 14 16 16 17 16 16 16 16 16 16 17 18 19 20 21 21 22 22 23 22 21 20 18 17
23 21 19 20 18 17 12 8 6 7 9 9 9 8 8 9 9 11 12 13 14 16 17 19 21 23 24 24 24 23 22 23 23 22 22 22 23 23 23 24 25 26 26 26 26 26 24 23 23
25 24 25 25 22 19 15 10 10 8 9 10 11 11 12 14 15 17 18 19 20 21 23 24 26 27 28 30 30 31 30 29 29 29 29 28 28 28 28 28 29 30 31 31 31 31 30 28 28
27 30 31 28 26 24 21 15 13 12 12 14 15 16 16 19 21 23 24 24 25 26 27 29 31 32 32 32 33 34 35 35 35 34 34 34 34 34 33 33 33 34 35 36 36 35 35 34 33
26 29 32 32 30 28 26 21 16 16 17 17 19 19 19 22 25 28 30 30 30 32 33 34 35 36 36 36 37 37 38 39 39 39 38 39 39 39 38 38 37 38 39 40 41 42 41 40 39
26 26 28 30 31 30 28 25 20 19 21 20 21 21 23 26 29 32 34 35 36 37 38 38 36 36 37 37 37 38 38 39 41 42 41 41 41 42 42 42 41 42 43 44 44 46 47 45 42
30 27 25 26 28 29 28 26 24 24 24 24 24 25 28 30 33 35 37 38 39 41 40 38 36 35 36 36 37 37 37 37 37 38 38 40 40 40 39 37 37 38 40 41 40 41 42 40 35
33 30 27 27 27 28 28 28 28 28 28 29 29 29 32 34 36 37 38 40 40 39 38 37 36 36 35 34 35 37 38 38 38 38 38 39 40 38 36 34 35 36 36 36 36 34 32 31 30
35 33 30 33 31 31 30 28 33 30 31 32 32 33 35 37 37 37 38 38 37 37 38 39 40 37 34 32 33 35 35 36 37 36 36 37 37 35 32 31 32 33 34 36 36 36 36 35 34
34 33 33 36 36 35 34 34 38 35 36 36 37 37 38 37 36 35 35 34 36 39 40 41 39 35 33 32 32 33 33 34 34 32 30 31 31 30 30 29 30 31 34 35 36 36 37 37 36
27 30 33 35 40 38 39 40 40 40 40 41 40 38 36 34 32 31 32 34 37 38 38 36 33 32 31 31 30 29 29 28 28 29 29 29 27 25 26 27 28 30 33 35 37 38 38 37 35
25 27 28 35 40 40 42 43 43 43 41 38 35 32 30 30 29 31 34 36 36 36 34 30 28 29 28 27 27 25 24 24 22 22 21 19 18 19 20 22 24 27 31 33 36 39 39 38 35
16 19 21 28 36 38 39 39 39 36 32 31 30 30 30 31 32 35 36 36 36 35 30 27 28 29 27 26 25 23 21 19 19 18 16 14 13 14 15 17 21 24 28 31 35 38 40 40 38
8 12 17 21 25 26 29 28 30 30 29 30 30 31 32 34 36 37 37 37 36 32 30 29 29 28 25 24 24 21 18 16 16 17 16 15 14 15 16 17 20 24 27 31 34 37 38 39 39
8 13 14 16 17 17 21 21 21 27 27 29 31 32 34 37 38 38 37 35 33 30 30 31 30 28 26 25 23 21 20 19 20 21 21 20 19 18 18 19 21 24 27 31 34 36 38 39 39
11 13 13 14 15 15 17 18 16 24 26 28 32 34 36 38 38 35 32 31 30 31 33 33 30 28 26 26 26 26 25 26 26 27 28 27 25 22 20 21 23 25 29 32 32 33 35 37 37
11 11 11 12 12 11 14 13 12 19 22 22 24 25 27 30 31 30 29 28 29 32 33 31 29 28 26 27 28 29 29 30 31 32 33 32 29 24 21 22 24 26 29 32 33 32 32 33 34
13 12 10 9 9 11 16 13 16 19 18 20 21 23 25 26 27 28 26 27 30 32 31 30 30 30 30 30 31 31 32 32 31 31 31 30 28 25 22 23 25 27 29 32 34 34 32 31 31
10 10 9 9 10 11 14 13 19 18 18 18 19 21 23 25 26 28 30 30 30 31 31 32 32 33 34 34 34 34 34 33 31 30 29 29 28 27 24 24 25 26 28 31 34 35 33 31 30
8 9 10 11 12 12 11 13 21 19 21 21 22 22 25 27 29 31 33 34 33 33 34 35 36 37 38 38 38 37 36 34 33 32 30 29 28 26 24 24 25 25 27 30 33 34 32 30 30
10 11 12 12 13 13 14 17 20 19 22 25 28 29 29 32 34 36 37 39 41 42 43 43 43 44 45 45 44 42 41 38 36 36 35 33 29 27 25 24 24 25 27 29 31 34 33 30 28
14 15 15 17 18 19 19 22 23 25 26 28 29 32 35 37 40 42 44 44 45 47 49 49 49 49 50 51 50 49 48 46 42 40 38 35 31 29 29 28 27 27 28 30 30 33 33 31 29
18 19 20 21 23 25 27 31 29 30 32 33 34 35 37 40 42 44 47 48 50 51 53 55 56 56 56 56 56 56 55 53 49 46 44 40 36 34 35 35 33 31 31 31 30 31 33 32 29
Wind_Direction
104 87 79 78 73 66 65 61 78 89 90 83 72 67 65 64 65 75 81 70 138 179 187 139 127 127 298 304 308 323 337 340 339 339 339 348 5 13 20 23 33 39 38 35 32 36 43 45 41
131 104 100 92 75 56 47 34 34 55 78 87 85 73 63 57 60 62 60 48 13 280 268 157 132 190 260 275 287 298 309 317 320 321 321 318 332 345 349 344 338 346 357 359 358 356 1 13 18
170 143 129 107 75 50 19 13 7 4 12 19 34 64 76 72 71 66 54 30 348 318 307 286 257 272 279 283 290 296 300 304 307 310 314 313 316 321 324 327 324 324 329 335 339 337 329 312 287
223 209 205 224 259 283 314 334 346 347 345 341 336 329 6 104 112 90 70 349 328 323 318 310 296 292 293 293 294 298 302 300 294 297 302 302 303 306 310 316 316 318 318 318 319 319 315 304 278
246 243 244 255 249 255 280 305 324 326 299 288 285 282 290 183 214 210 238 261 287 302 313 315 306 296 294 291 289 290 293 291 286 284 287 291 299 307 310 312 312 310 310 313 315 315 311 302 288
245 250 250 249 248 234 242 289 316 315 284 273 269 272 273 284 237 224 263 270 263 267 282 293 286 281 282 281 282 287 289 288 285 282 280 285 295 301 303 303 306 306 306 309 314 318 316 309 297
244 245 244 245 250 236 244 282 305 305 290 282 274 257 240 273 264 265 297 299 294 294 292 289 285 282 281 281 281 284 282 285 284 279 275 279 288 293 296 297 298 299 301 302 304 309 309 306 299
245 246 247 244 246 248 258 280 294 294 288 285 270 244 247 266 288 299 308 307 303 300 297 294 292 289 285 282 282 283 283 283 283 280 277 279 283 288 291 294 295 293 294 297 298 299 299 298 293
244 246 248 245 244 250 254 256 268 281 279 268 255 255 257 273 287 297 305 309 310 308 303 299 295 292 287 283 281 280 280 282 282 282 281 281 282 284 286 288 288 286 285 285 288 289 289 288 286
240 238 241 248 251 256 257 251 248 264 261 253 255 265 274 285 293 299 302 305 308 308 306 302 296 292 288 285 282 280 279 279 279 280 281 282 282 282 282 283 283 282 280 278 278 279 279 279 279
237 236 243 249 253 259 263 260 250 263 262 255 265 273 279 287 293 298 299 301 305 305 305 302 297 292 288 285 282 281 279 279 278 279 281 282 281 280 280 279 279 279 278 277 276 274 273 274 275
238 240 245 250 255 259 262 262 256 261 263 267 276 280 281 284 290 296 299 303 306 306 305 302 297 293 290 288 285 282 278 277 276 276 277 278 278 278 279 279 279 278 278 277 278 276 273 272 271
236 240 245 249 253 256 259 260 257 258 264 271 278 278 278 283 289 293 297 301 302 302 301 297 293 291 289 287 284 283 281 278 277 277 277 278 278 279 279 279 279 279 278 278 279 278 275 272 270
236 239 245 247 249 252 256 260 262 261 265 269 274 277 279 283 286 289 292 294 296 297 296 294 291 287 286 285 283 281 281 280 280 279 278 279 280 281 282 282 280 279 279 280 283 284 279 276 274
236 236 241 246 249 252 256 259 261 261 264 267 271 275 278 280 282 283 286 290 292 294 295 293 291 288 285 282 280 279 280 281 279 278 279 279 280 281 282 282 281 280 280 282 283 284 282 280 278
237 236 237 242 244 249 252 256 260 262 264 267 270 273 274 277 278 280 284 288 292 297 298 297 296 292 285 281 277 276 278 279 279 278 279 279 281 282 285 286 285 285 285 287 287 285 284 284 283
239 237 237 242 243 247 250 252 259 263 264 267 270 272 274 275 276 279 282 286 293 297 297 295 294 290 285 282 279 279 280 279 278 278 279 281 281 283 287 290 292 292 291 290 289 286 284 283 283
240 237 241 244 246 248 252 256 260 262 265 268 271 273 272 272 274 275 280 287 293 296 295 292 289 285 283 282 281 283 283 283 281 279 281 284 285 288 291 294 296 296 295 294 291 288 286 284 282
243 240 242 247 251 253 255 259 263 266 268 269 269 269 268 269 270 275 281 287 292 295 293 288 285 284 283 284 286 287 285 284 284 282 281 282 286 290 294 296 297 296 294 291 287 284 282 280 278
253 247 248 254 254 256 260 265 269 272 269 266 265 265 266 267 271 276 283 288 293 293 289 284 285 288 287 286 286 284 281 277 272 270 272 279 288 295 299 301 303 303 301 295 288 283 278 275 272
276 263 261 265 270 274 277 277 281 277 270 267 266 267 268 272 277 281 284 288 290 289 285 283 287 288 285 283 284 281 279 275 272 272 274 276 287 296 301 309 314 316 314 308 298 288 281 275 270
287 274 273 275 275 272 273 272 270 280 279 273 271 271 274 277 278 279 282 284 286 285 286 288 290 288 283 283 286 286 285 282 279 278 275 276 284 293 299 308 318 323 324 320 308 295 286 279 273
283 288 285 286 287 285 281 282 279 279 278 273 269 269 270 272 273 274 275 278 281 284 289 291 292 288 283 284 287 287 286 283 280 278 278 279 283 288 297 306 315 324 328 326 318 303 291 284 278
300 298 293 296 302 298 285 288 289 281 282 276 271 268 265 267 266 265 269 276 281 285 288 290 291 290 287 286 287 287 287 286 284 283 282 282 282 285 295 303 311 321 327 329 325 313 298 288 282
301 306 308 307 298 290 295 297 285 291 293 286 279 274 272 272 267 265 271 278 281 282 283 286 289 290 288 287 285 286 287 286 284 282 279 278 278 281 290 303 309 317 326 330 328 320 307 296 287
299 305 300 290 287 289 299 298 293 301 299 294 287 281 278 277 276 276 278 279 281 282 284 286 288 289 289 286 284 284 285 284 282 279 276 275 278 283 292 303 309 313 320 326 328 323 314 304 294
308 308 302 302 304 309 297 295 296 301 301 298 294 290 286 282 281 280 281 280 278 278 279 281 283 284 284 282 281 281 282 283 282 279 276 277 282 288 296 303 306 310 316 321 324 323 318 311 300
311 311 307 302 296 293 292 295 284 292 292 292 290 288 285 282 281 280 280 278 277 276 277 278 279 280 281 281 281 281 280 279 280 279 277 277 281 287 295 300 302 306 311 317 321 322 318 314 308
322 316 309 302 300 299 297 289 298 297 294 290 286 283 282 282 281 280 279 278 276 275 276 277 276 276 277 279 280 281 282 281 280 280 277 275 278 287 293 296 295 299 305 311 316 319 318 314 311
321 317 313 309 308 307 307 300 307 302 299 295 290 285 282 279 277 276 276 276 275 274 274 274 274 273 272 273 275 277 279 280 279 278 276 272 275 286 295 297 295 294 298 305 310 314 315 314 312